[[{"header":{"parameterUnit":"m.s-1","parameterCategory":1,"la1":30.2991,"la2":30.254,"lo1":-89.0895,"lo2":-89.0444,"dy":0.0017,"dx":0.0017,"nx":28,"ny":28,"refTime":"2024-07-02T09:00:00:Z","depth":0,"parameterNumber":2,"parameterNumberName":"U-component_of_WINDS"},"data":[0,0,0,0,0,0,0,0,0,0,0,0,0,0,0,0,0,0,0,0,0,0,0,0,0,0,0,0,0,0,0,0,0,0,0,0,0,0,0,0,0,0,0,0,0,0,0,0,0,0,0,0,0,0,0,0,0,0,-0.2721,-0.272,0,-0.2677,-0.2677,-0.2676,-0.2654,-0.2654,-0.2654,-0.2654,-0.2613,-0.2612,-0.2611,0,0,0,0,0,0,0,0,0,0,0,0,0,-0.2788,-0.2787,-0.2721,-0.272,-0.272,-0.2677,-0.2677,-0.2676,-0.2654,-0.2654,-0.2654,-0.2654,-0.2613,-0.2612,-0.261,0,0,0,0,0,0,0,0,0,0,0,0,0,-0.2753,-0.2786,-0.2721,-0.2703,-0.2701,-0.2678,-0.2677,-0.2676,-0.2654,-0.2654,-0.2654,-0.2654,-0.2613,-0.2612,-0.261,-0.2602,0,0,-0.2605,-0.2605,0,0,0,0,0,0,0,0,-0.2755,-0.2751,-0.2706,-0.2704,-0.2702,-0.2671,-0.2685,-0.2651,-0.2654,-0.2672,-0.2654,-0.2653,-0.2632,-0.2629,-0.2621,-0.26,-0.2598,-0.2605,-0.2604,-0.2604,-0.2603,0,0,0,0,0,0,0,-0.2757,-0.2752,-0.2704,-0.2706,-0.2703,-0.2699,-0.2694,-0.2679,-0.2653,-0.267,-0.2668,-0.2663,-0.2631,-0.2623,-0.262,-0.2598,-0.2605,-0.2604,-0.2603,-0.2602,-0.2568,-0.2568,0,0,0,0,0,0,-0.2762,-0.2754,-0.2705,-0.2702,-0.2729,-0.2698,-0.2692,-0.2681,-0.2653,-0.2649,-0.2664,-0.2663,-0.2626,-0.2622,-0.2619,-0.2607,-0.2604,-0.2602,-0.2601,-0.2568,-0.2568,-0.2568,0,0,0,0,0,0,-0.2764,-0.2758,-0.2707,-0.2728,-0.2721,-0.2696,-0.2684,-0.268,-0.2672,-0.2648,-0.2644,-0.266,-0.2625,-0.2621,-0.2606,-0.2605,-0.2602,-0.26,-0.2568,-0.2568,-0.2568,-0.2584,0,0,0,0,0,0,-0.2766,-0.2759,-0.2754,-0.2728,-0.272,-0.2694,-0.2684,-0.2679,-0.2669,-0.2667,-0.2643,-0.2639,-0.2625,-0.2609,-0.2605,-0.2603,-0.2599,-0.2568,-0.2568,-0.2568,-0.2583,-0.2585,-0.2586,0,0,0,0,0,-0.2768,-0.2761,-0.2754,-0.2748,-0.2714,-0.2694,-0.269,-0.2672,-0.2669,-0.2665,-0.265,-0.264,-0.2606,-0.2607,-0.2603,-0.2601,-0.2568,-0.2568,-0.2568,-0.2583,-0.2584,-0.2586,0,0,0,0,0,0,-0.279,-0.2757,-0.2749,-0.2733,-0.2716,-0.269,-0.2685,-0.2674,-0.2659,-0.2658,-0.2638,-0.2633,-0.2621,-0.2609,-0.2611,-0.2591,-0.2586,-0.2585,-0.2599,-0.26,-0.2601,-0.2604,-0.2598,0,0,0,0,0,-0.2792,-0.2777,-0.2751,-0.2739,-0.2731,-0.2709,-0.27,-0.2688,-0.267,-0.2663,-0.2647,-0.2631,-0.2617,-0.2608,-0.2594,-0.2582,-0.2577,-0.2578,-0.2579,-0.258,-0.258,-0.2573,-0.2574,-0.2568,-0.2568,-0.2568,0,0,-0.2798,-0.2779,-0.2771,-0.2743,-0.2729,-0.2715,-0.2704,-0.269,-0.268,-0.2662,-0.2646,-0.2634,-0.2615,-0.2602,-0.2595,-0.2592,-0.258,-0.258,-0.2581,-0.258,-0.2573,-0.2574,-0.2574,-0.2568,-0.2568,-0.2568,0,0,-0.2801,-0.2785,-0.2773,-0.2759,-0.2737,-0.2722,-0.272,-0.2695,-0.2685,-0.267,-0.2656,-0.2645,-0.262,-0.2607,-0.2597,-0.2596,-0.2587,-0.2592,-0.2598,-0.2592,-0.2592,-0.2592,-0.2592,-0.2592,-0.2592,-0.2592,-0.2592,0,-0.2812,-0.2789,-0.2769,-0.2756,-0.2745,-0.2727,-0.2716,-0.2703,-0.2678,-0.2671,-0.2667,-0.2637,-0.2623,-0.2606,-0.2606,-0.2598,-0.2596,-0.2595,-0.2593,-0.2593,-0.2593,-0.2593,-0.2593,-0.2593,-0.2592,-0.2592,-0.2592,0,-0.2803,-0.2788,-0.2781,-0.2756,-0.2744,-0.2732,-0.2712,-0.2702,-0.2692,-0.2678,-0.2663,-0.2645,-0.2627,-0.2622,-0.2612,-0.2605,-0.2603,-0.2597,-0.2591,-0.2595,-0.2594,-0.2594,-0.2594,-0.2593,-0.2593,-0.2593,0,0,-0.2819,-0.2782,-0.278,-0.2768,-0.2743,-0.2731,-0.2719,-0.27,-0.2692,-0.2676,-0.2665,-0.2645,-0.2639,-0.2628,-0.2617,-0.2611,-0.2612,-0.2605,-0.2605,-0.2607,-0.2603,-0.2608,-0.2608,-0.2605,-0.2605,-0.2605,-0.2604,0,-0.2818,-0.2794,-0.2776,-0.2759,-0.2745,-0.2728,-0.2717,-0.2701,-0.2688,-0.2675,-0.2661,-0.2647,-0.264,-0.2633,-0.2627,-0.2613,-0.261,-0.2613,-0.2596,-0.2596,-0.2602,-0.2607,-0.2613,-0.2613,-0.2604,-0.2604,-0.2604,0,-0.2815,-0.2797,-0.2778,-0.2754,-0.2747,-0.2738,-0.2719,-0.2707,-0.2689,-0.268,-0.2667,-0.2655,-0.2643,-0.2638,-0.2621,-0.2623,-0.2615,-0.2607,-0.2607,-0.2605,-0.26,-0.2606,-0.2612,-0.2613,-0.2603,-0.2603,-0.2603,0,-0.2828,-0.28,-0.2785,-0.2776,-0.2747,-0.2741,-0.2729,-0.271,-0.27,-0.2684,-0.2677,-0.2661,-0.2652,-0.264,-0.2624,-0.2622,-0.2609,-0.2603,-0.2602,-0.2602,-0.26,-0.26,-0.2606,-0.2595,-0.2595,-0.2595,-0.2595,0,-0.283,-0.2819,-0.2791,-0.2782,-0.2769,-0.2749,-0.2738,-0.2725,-0.2709,-0.2698,-0.2682,-0.2673,-0.2652,-0.264,-0.2628,-0.2616,-0.2612,-0.2605,-0.2602,-0.2606,-0.2607,-0.2601,-0.2601,-0.2595,-0.2595,-0.2595,-0.2595,0,-0.2843,-0.2823,-0.2806,-0.278,-0.2773,-0.2765,-0.2743,-0.2734,-0.2721,-0.2707,-0.2702,-0.2681,-0.2666,-0.2649,-0.2629,-0.2621,-0.261,-0.2605,-0.2616,-0.2614,-0.2614,-0.2614,-0.2616,-0.2615,-0.2605,-0.2605,-0.2605,0,-0.2845,-0.2836,-0.2809,-0.28,-0.2788,-0.2773,-0.2762,-0.2743,-0.2733,-0.2711,-0.2705,-0.2689,-0.2675,-0.2652,-0.2635,-0.262,-0.2615,-0.2617,-0.2613,-0.2618,-0.2616,-0.2616,-0.2616,-0.2618,-0.2618,-0.2618,-0.2618,0,-0.2852,-0.2843,-0.2827,-0.2808,-0.2795,-0.2779,-0.2763,-0.2757,-0.2735,-0.2724,-0.2708,-0.2697,-0.2676,-0.2661,-0.2643,-0.2632,-0.2622,-0.262,-0.2619,-0.2623,-0.263,-0.2627,-0.2619,-0.262,-0.262,-0.262,-0.262,-0.262,-0.286,-0.2851,-0.283,-0.2813,-0.2799,-0.2784,-0.2775,-0.2759,-0.2745,-0.2725,-0.2715,-0.27,-0.2682,-0.2657,-0.2647,-0.2635,-0.2632,-0.263,-0.263,-0.263,-0.2631,-0.2632,-0.2632,-0.2632,-0.2632,-0.2632,-0.2632,0,-0.2866,-0.2851,-0.2836,-0.2813,-0.28,-0.279,-0.2772,-0.2763,-0.2748,-0.2732,-0.2718,-0.27,-0.2685,-0.2667,-0.2651,-0.2646,-0.2641,-0.2642,-0.2642,-0.264,-0.2635,-0.2637,-0.2646,-0.2646,-0.2646,-0.2646,-0.2646,-0.2646,-0.2867,-0.2852,-0.284,-0.2818,-0.2804,-0.2787,-0.2778,-0.2765,-0.2752,-0.2732,-0.2719,-0.2707,-0.269,-0.2673,-0.2659,-0.2654,-0.2649,-0.2652,-0.2646,-0.2642,-0.2641,-0.2639,-0.2642,-0.2651,-0.2651,-0.2652,-0.2652,-0.2652]},{"header":{"parameterUnit":"m.s-1","parameterCategory":1,"la1":30.2991,"la2":30.254,"lo1":-89.0895,"lo2":-89.0444,"dy":0.0017,"dx":0.0017,"nx":28,"ny":28,"refTime":"2024-07-02T09:00:00:Z","depth":0,"parameterNumber":3,"parameterNumberName":"V-component_of_WINDS"},"data":[0,0,0,0,0,0,0,0,0,0,0,0,0,0,0,0,0,0,0,0,0,0,0,0,0,0,0,0,0,0,0,0,0,0,0,0,0,0,0,0,0,0,0,0,0,0,0,0,0,0,0,0,0,0,0,0,0,0,5.6274,5.6275,0,5.6292,5.6292,5.6292,5.6229,5.6227,5.6225,5.6223,5.6238,5.624,5.6242,0,0,0,0,0,0,0,0,0,0,0,0,0,5.6184,5.6186,5.6274,5.6275,5.6275,5.6292,5.6292,5.6292,5.6229,5.6227,5.6225,5.6222,5.6237,5.624,5.6243,0,0,0,0,0,0,0,0,0,0,0,0,0,5.6215,5.6187,5.6274,5.6246,5.6243,5.6292,5.6292,5.6292,5.623,5.6227,5.6224,5.6221,5.6237,5.624,5.6243,5.6319,0,0,5.6253,5.6254,0,0,0,0,0,0,0,0,5.6213,5.6218,5.625,5.6248,5.6245,5.6255,5.6266,5.6301,5.623,5.6235,5.6223,5.622,5.6246,5.6248,5.6258,5.632,5.632,5.6253,5.6255,5.6256,5.6257,0,0,0,0,0,0,0,5.6211,5.6217,5.6281,5.625,5.6247,5.6231,5.6232,5.6272,5.6256,5.6234,5.623,5.6233,5.6244,5.6255,5.6257,5.6321,5.6253,5.6256,5.6258,5.6259,5.6447,5.645,0,0,0,0,0,0,5.6213,5.6216,5.6281,5.6282,5.6222,5.6235,5.6236,5.6255,5.6255,5.6253,5.6235,5.623,5.625,5.6254,5.6258,5.6347,5.6256,5.6259,5.6261,5.6444,5.6448,5.6451,0,0,0,0,0,0,5.6211,5.622,5.628,5.6247,5.6254,5.6239,5.6261,5.6257,5.6267,5.6256,5.6252,5.6249,5.6248,5.6253,5.6305,5.6347,5.6261,5.6264,5.644,5.6445,5.6449,5.6527,0,0,0,0,0,0,5.6209,5.6219,5.6249,5.6249,5.6256,5.6328,5.6263,5.6259,5.6273,5.6266,5.6268,5.6266,5.6247,5.63,5.6308,5.635,5.6266,5.6436,5.6442,5.6448,5.6521,5.6534,5.6545,0,0,0,0,0,5.6206,5.6269,5.6251,5.6259,5.6292,5.633,5.6334,5.6312,5.6277,5.6306,5.6299,5.6265,5.6341,5.6306,5.6314,5.6358,5.6434,5.6441,5.6447,5.6515,5.6531,5.6545,0,0,0,0,0,0,5.6273,5.6269,5.6248,5.6313,5.6323,5.6319,5.6355,5.6329,5.6348,5.6341,5.6311,5.6312,5.6369,5.6368,5.6329,5.6432,5.6381,5.639,5.643,5.6445,5.6457,5.6456,5.6269,0,0,0,0,0,5.6296,5.6328,5.6321,5.6379,5.6386,5.637,5.6385,5.6368,5.6376,5.6379,5.6376,5.6385,5.641,5.6428,5.6451,5.6521,5.652,5.6555,5.6567,5.6577,5.6585,5.6622,5.6637,5.6474,5.6473,5.6473,0,0,5.6342,5.6344,5.6365,5.6393,5.6398,5.6431,5.6374,5.6411,5.6435,5.6384,5.6433,5.6431,5.6439,5.65,5.6527,5.6501,5.663,5.6586,5.6594,5.6596,5.6631,5.6646,5.666,5.6478,5.6477,5.6477,0,0,5.6444,5.6449,5.6498,5.6505,5.6514,5.6503,5.6515,5.6516,5.6513,5.6562,5.6525,5.6553,5.6598,5.6605,5.6615,5.6721,5.6691,5.6729,5.6792,5.6829,5.6842,5.6853,5.6891,5.6905,5.6737,5.6737,5.6737,0,5.65,5.655,5.6526,5.6566,5.6579,5.6537,5.6586,5.6593,5.6609,5.6619,5.6591,5.6647,5.6649,5.6711,5.6737,5.6746,5.6759,5.6728,5.6842,5.6853,5.6863,5.6899,5.6914,5.6742,5.6741,5.6741,5.674,0,5.6619,5.6653,5.6692,5.671,5.6727,5.6772,5.6754,5.6775,5.6756,5.6748,5.6798,5.6799,5.6822,5.6836,5.6817,5.6896,5.688,5.6847,5.6796,5.6884,5.6917,5.6931,5.6748,5.6746,5.6745,5.6744,0,0,5.6762,5.6768,5.6782,5.679,5.6798,5.6824,5.6866,5.689,5.6908,5.6921,5.6956,5.6995,5.6965,5.6976,5.6958,5.699,5.7074,5.6953,5.6953,5.6976,5.7162,5.7187,5.7203,5.7055,5.7057,5.7059,5.7162,0,5.6863,5.6937,5.6917,5.6991,5.7022,5.6983,5.702,5.7028,5.7022,5.7048,5.704,5.7069,5.7028,5.7034,5.7064,5.7058,5.7111,5.705,5.7086,5.7088,5.7086,5.722,5.7246,5.7343,5.7174,5.7176,5.7178,0,5.6989,5.7009,5.7086,5.7089,5.7102,5.7136,5.7156,5.7181,5.719,5.7183,5.7196,5.7171,5.7213,5.7162,5.7218,5.7177,5.7191,5.719,5.7193,5.7195,5.7138,5.7227,5.7373,5.7388,5.7198,5.7197,5.7195,0,5.7087,5.7132,5.7184,5.7192,5.7197,5.7222,5.7225,5.7231,5.7247,5.7264,5.7274,5.7296,5.7308,5.7325,5.7306,5.7271,5.7366,5.7313,5.7361,5.7362,5.7383,5.7382,5.7534,5.7392,5.7392,5.7391,5.7391,0,5.7201,5.725,5.7229,5.7261,5.7314,5.7291,5.7344,5.7342,5.7348,5.7379,5.7345,5.7375,5.7349,5.7376,5.7361,5.7411,5.7416,5.7412,5.7407,5.7415,5.7415,5.7423,5.7416,5.7395,5.7394,5.7394,5.7393,0,5.732,5.7307,5.7361,5.7362,5.7364,5.7403,5.7403,5.7433,5.7425,5.7464,5.7472,5.7459,5.7489,5.7472,5.7503,5.7493,5.7557,5.7544,5.7555,5.7551,5.7601,5.7596,5.7763,5.7784,5.7628,5.763,5.7631,0,5.7393,5.743,5.7436,5.7454,5.746,5.7491,5.7507,5.7485,5.7503,5.7516,5.7544,5.7572,5.7592,5.7642,5.7635,5.7658,5.7645,5.7702,5.7648,5.7655,5.7646,5.7644,5.7648,5.7712,5.7714,5.7716,5.7717,0,5.7526,5.7518,5.7543,5.7567,5.7588,5.7605,5.7619,5.7636,5.7615,5.7637,5.7668,5.7684,5.7716,5.7743,5.7763,5.7765,5.7738,5.7734,5.7746,5.7755,5.776,5.7758,5.7584,5.773,5.7729,5.7728,5.7727,5.7727,5.7624,5.7655,5.7665,5.7694,5.7703,5.7717,5.7745,5.7741,5.7767,5.7792,5.7777,5.7814,5.7821,5.7846,5.7852,5.7879,5.7856,5.7874,5.7879,5.7884,5.7891,5.7756,5.7883,5.7882,5.7882,5.7882,5.7881,0,5.7755,5.7759,5.7787,5.7809,5.7832,5.7805,5.782,5.784,5.7873,5.7884,5.7905,5.7941,5.7968,5.7963,5.7987,5.801,5.7998,5.8017,5.8016,5.8017,5.791,5.7897,5.8027,5.8027,5.8027,5.8027,5.8027,5.8027,5.7826,5.7878,5.7872,5.7927,5.793,5.7967,5.7978,5.7991,5.7999,5.8041,5.8063,5.806,5.8065,5.8089,5.8112,5.811,5.8121,5.8145,5.8138,5.8038,5.8024,5.801,5.7998,5.8147,5.8147,5.8243,5.8243,5.8244]}]]